Weather History for Bastrop, LA

Change the Weather History Date:

Friday, March 15, 2013

  Actual Average (KMLU) Record (KMLU)
Temperature  
Mean Temperature 66 °F 58 °F  
Max Temperature 81 °F 69 °F 88 °F (1936)
Min Temperature 51 °F 46 °F 29 °F (1988)
Degree Days  
Heating Degree Days 0 8  
Month to date heating degree days 148  
Since 1 July heating degree days 2042  
Cooling Degree Days 1 1  
Month to date cooling degree days 13  
Year to date cooling degree days 24  
Growing Degree Days 16 (Base 50)    
Moisture  
Dew Point 41 °F    
Average Humidity 43    
Maximum Humidity 64    
Minimum Humidity 20    
Precipitation  
Precipitation 0.00 in 0.15 in 1.90 in (1973)
Month to date precipitation 2.43  
Year to date precipitation 12.07  
Snow  
Snow 0.00 in - - ()
Month to date snowfall  
Since 1 July snowfall  
Snow Depth -    
Sea Level Pressure  
Sea Level Pressure 30.13 in    
Wind  
Wind Speed 5 mph (SW)    
Max Wind Speed 14 mph    
Max Gust Speed 21 mph    
Visibility 10 miles    
Events      
T = Trace of Precipitation, MM = Missing Value Source: NWS Daily Summary

Daily Weather History Graph

Daily Weather History Graph

Search for Another Location

Airport:

Trip Planner

Search our weather history database for the weather conditions in past years. The results will help you decide how hot, cold, wet, or windy it might be!

Date:

Astronomy

Mar. 15, 2013 Rise Set
Actual Time 7:17 AM CDT 7:15 PM CDT
Civil Twilight 6:52 AM CDT 7:40 PM CDT
Nautical Twilight 6:24 AM CDT 8:08 PM CDT
Astronomical Twilight 5:55 AM CDT 8:37 PM CDT
Moon 9:22 AM CDT (3/15) 11:14 PM CDT (3/15)
Length of Visible Light 12h 47m
Length of Day
11h 58m
Waxing Crescent, 15% of the Moon is Illuminated
Mar 15
Waxing Crescent
Mar 19
First Quarter
Mar 27
Full
Apr 2
Last Quarter
Apr 10
New

Hourly Weather History & Observations

Time (CDT) Temp. Dew Point Humidity Pressure Visibility Wind Dir Wind Speed Gust Speed Precip Events Conditions
12:15 AM 54.5 °F 38.1 °F 54% 30.23 in 10.0 mi Calm Calm - N/A   Clear
12:35 AM 57.6 °F 37.6 °F 47% 30.23 in 10.0 mi Calm Calm - N/A   Clear
12:55 AM 58.8 °F 36.9 °F 44% 30.23 in 10.0 mi SSW 6.9 mph - N/A   Clear
1:15 AM 58.3 °F 36.9 °F 45% 30.23 in 10.0 mi SSW 6.9 mph - N/A   Clear
1:35 AM 57.4 °F 37.4 °F 47% 30.23 in 10.0 mi Calm Calm - N/A   Clear
1:55 AM 56.5 °F 37.4 °F 49% 30.23 in 10.0 mi Calm Calm - N/A   Clear
2:15 AM 56.3 °F 37.9 °F 50% 30.23 in 10.0 mi Calm Calm - N/A   Clear
2:35 AM 55.6 °F 38.3 °F 52% 30.22 in 10.0 mi Calm Calm - N/A   Clear
2:55 AM 55.4 °F 38.8 °F 54% 30.22 in 10.0 mi Calm Calm - N/A   Clear
3:15 AM 55.4 °F 39.2 °F 54% 30.21 in 10.0 mi Calm Calm - N/A   Clear
3:35 AM 55.6 °F 39.6 °F 55% 30.21 in 10.0 mi SW 5.8 mph - N/A   Clear
3:55 AM 56.1 °F 39.7 °F 54% 30.20 in 10.0 mi SW 8.1 mph - N/A   Clear
4:15 AM 55.6 °F 39.7 °F 55% 30.20 in 10.0 mi SW 6.9 mph - N/A   Clear
4:35 AM 55.4 °F 39.6 °F 55% 30.20 in 10.0 mi SW 8.1 mph - N/A   Clear
4:55 AM 55.2 °F 39.4 °F 55% 30.20 in 10.0 mi SW 6.9 mph - N/A   Clear
5:15 AM 54.9 °F 39.4 °F 56% 30.20 in 10.0 mi SW 4.6 mph - N/A   Clear
5:35 AM 54.5 °F 39.4 °F 57% 30.21 in 10.0 mi SW 5.8 mph - N/A   Clear
5:55 AM 53.8 °F 39.6 °F 59% 30.21 in 10.0 mi SW 6.9 mph - N/A   Clear
6:15 AM 53.6 °F 39.6 °F 59% 30.20 in 10.0 mi SW 6.9 mph - N/A   Clear
6:35 AM 52.7 °F 39.6 °F 61% 30.21 in 10.0 mi Calm Calm - N/A   Clear
6:55 AM 52.3 °F 39.7 °F 62% 30.21 in 10.0 mi Calm Calm - N/A   Clear
7:15 AM 51.6 °F 39.7 °F 64% 30.21 in 10.0 mi Calm Calm - N/A   Clear
7:35 AM 51.8 °F 39.9 °F 64% 30.21 in 10.0 mi SSW 5.8 mph - N/A   Clear
7:55 AM 52.7 °F 40.1 °F 62% 30.21 in 10.0 mi SSW 6.9 mph - N/A   Clear
8:15 AM 54.3 °F 40.5 °F 59% 30.21 in 10.0 mi SW 5.8 mph - N/A   Clear
8:35 AM 55.9 °F 41.0 °F 57% 30.22 in 10.0 mi SW 9.2 mph - N/A   Clear
8:55 AM 57.7 °F 41.9 °F 56% 30.22 in 10.0 mi SW 9.2 mph - N/A   Clear
9:15 AM 59.4 °F 42.8 °F 54% 30.22 in 10.0 mi SW 10.4 mph - N/A   Clear
9:35 AM 61.2 °F 43.7 °F 53% 30.22 in 10.0 mi WSW 8.1 mph - N/A   Clear
9:55 AM 62.8 °F 44.6 °F 51% 30.21 in 10.0 mi SW 9.2 mph - N/A   Clear
10:55 AM 68.0 °F 46.0 °F 45% 30.19 in 10.0 mi SSW 11.5 mph 16.1 mph N/A   Clear
11:15 AM 68.9 °F 46.2 °F 44% 30.20 in 10.0 mi SW 8.1 mph - N/A   Clear
11:35 AM 70.0 °F 45.9 °F 42% 30.19 in 10.0 mi SW 11.5 mph - N/A   Clear
11:55 AM 72.5 °F 45.5 °F 38% 30.18 in 10.0 mi WSW 11.5 mph - N/A   Clear
12:15 PM 73.4 °F 45.9 °F 37% 30.18 in 10.0 mi SW 9.2 mph 16.1 mph N/A   Clear
12:35 PM 75.2 °F 45.9 °F 35% 30.17 in 10.0 mi West 8.1 mph - N/A   Clear
12:55 PM 75.9 °F 45.5 °F 34% 30.16 in 10.0 mi SW 8.1 mph 16.1 mph N/A   Clear
1:15 PM 76.5 °F 45.3 °F 33% 30.14 in 10.0 mi WSW 5.8 mph - N/A   Clear
1:35 PM 77.0 °F 44.8 °F 32% 30.13 in 10.0 mi SW 8.1 mph - N/A   Clear
1:55 PM 78.1 °F 44.6 °F 30% 30.12 in 10.0 mi SSW 5.8 mph - N/A   Clear
2:15 PM 79.2 °F 42.8 °F 27% 30.11 in 10.0 mi SSW 11.5 mph 20.7 mph N/A   Clear
2:35 PM 79.2 °F 42.8 °F 27% 30.10 in 10.0 mi SW 9.2 mph - N/A   Clear
2:55 PM 79.3 °F 42.3 °F 27% 30.09 in 10.0 mi SSW 9.2 mph 20.7 mph N/A   Clear
3:15 PM 80.6 °F 41.5 °F 25% 30.08 in 10.0 mi WSW 10.4 mph 18.4 mph N/A   Clear
3:35 PM 80.6 °F 41.9 °F 25% 30.07 in 10.0 mi SSW 13.8 mph 17.3 mph N/A   Clear
3:55 PM 80.8 °F 40.6 °F 24% 30.06 in 10.0 mi WSW 8.1 mph 19.6 mph N/A   Clear
4:15 PM 80.8 °F 41.2 °F 24% 30.06 in 10.0 mi SSW 10.4 mph 18.4 mph N/A   Clear
4:35 PM 81.1 °F 40.5 °F 23% 30.05 in 10.0 mi SSW 11.5 mph 17.3 mph N/A   Clear
4:55 PM 81.5 °F 39.9 °F 23% 30.04 in 10.0 mi SW 10.4 mph 19.6 mph N/A   Clear
5:15 PM 80.8 °F 38.3 °F 22% 30.04 in 10.0 mi SW 11.5 mph - N/A   Clear
5:35 PM 80.6 °F 36.7 °F 21% 30.03 in 10.0 mi SSW 10.4 mph - N/A   Clear
5:55 PM 80.6 °F 36.9 °F 21% 30.03 in 10.0 mi SW 11.5 mph 16.1 mph N/A   Clear
6:15 PM 79.7 °F 35.2 °F 20% 30.02 in 10.0 mi SSW 5.8 mph - N/A   Clear
6:35 PM 78.6 °F 36.1 °F 22% 30.02 in 10.0 mi SSW 9.2 mph - N/A   Clear
6:55 PM 77.5 °F 36.5 °F 23% 30.02 in 10.0 mi SSW 8.1 mph - N/A   Clear
7:15 PM 75.7 °F 37.4 °F 25% 30.01 in 10.0 mi SSW 8.1 mph - N/A   Clear
7:35 PM 73.9 °F 38.3 °F 27% 30.01 in 10.0 mi SSW 5.8 mph - N/A   Clear
7:55 PM 73.0 °F 38.8 °F 29% 30.01 in 10.0 mi Calm Calm - N/A   Clear
8:15 PM 71.8 °F 39.7 °F 31% 30.01 in 10.0 mi Calm Calm - N/A   Clear
8:35 PM 71.1 °F 40.3 °F 33% 30.01 in 10.0 mi Calm Calm - N/A   Clear
8:55 PM 70.2 °F 41.0 °F 35% 30.01 in 10.0 mi South 5.8 mph - N/A   Clear
9:15 PM 68.9 °F 41.4 °F 37% 30.01 in 10.0 mi Calm Calm - N/A   Clear
9:55 PM 70.0 °F 47.5 °F 45% 30.01 in 10.0 mi South 9.2 mph 18.4 mph N/A   Clear
10:15 PM 69.6 °F 48.6 °F 47% 30.00 in 10.0 mi South 12.7 mph 18.4 mph N/A   Clear
10:35 PM 69.1 °F 49.1 °F 49% 30.01 in 10.0 mi SSW 11.5 mph 18.4 mph N/A   Clear
10:55 PM 68.5 °F 50.0 °F 52% 30.01 in 10.0 mi South 10.4 mph 18.4 mph N/A   Clear
11:15 PM 68.0 °F 50.9 °F 54% 30.01 in 10.0 mi South 13.8 mph 18.4 mph N/A   Clear
11:35 PM 67.1 °F 51.4 °F 57% 30.01 in 10.0 mi South 11.5 mph 16.1 mph N/A   Clear
11:55 PM 66.4 °F 52.0 °F 60% 30.01 in 10.0 mi SSW 10.4 mph 17.3 mph N/A   Clear